Location: Burzi?i
(45.0869°N, 16.0577°E)
Time: 12:14:58
(UTC+00:00)

IRS-P2 Rocket - Pass Details

Date: 29 October 2020
Orbit: 794 x 876 km, 99.1° (Epoch: 28 November)

Event Time Altitude Azimuth Distance (km) Brightness Sun altitude
Rises 17:12:05 0° 159° (SSE) 3,285 7.6 -15.4°
Reaches altitude 10° 17:14:23 10° 158° (SSE) 2,364 6.9 -15.8°
Maximum altitude 17:19:36 78° 73° (ENE) 828 4.5 -16.7°
Drops below altitude 10° 17:24:55 10° 348° (NNW) 2,417 7.2 -17.7°
Sets 17:27:18 0° 347° (NNW) 3,365 8.0 -18.1°
